| time (UTC) | temp F | wind direction | speed knots | gust knots | rain 1hr in | rain 24hr in | rain mn in | humidity % | barometer mb |
| 20260906154536 | 85 | 108 | 6.1 | 9.6 | 0.00 | 0.00 | 0.00 | 79 | 1012.2 |
| 20260906153040 | 85 | 150 | 4.3 | 7.8 | 0.00 | 0.00 | 0.00 | 79 | 1012.2 |
| 20260906151532 | 84 | 80 | 6.1 | 8.7 | 0.00 | 0.00 | 0.00 | 80 | 1012.0 |
| 20260906150030 | 84 | 76 | 5.2 | 9.6 | 0.00 | 0.00 | 0.00 | 80 | 1012.1 |
| 20260906144527 | 83 | 63 | 2.6 | 7.0 | 0.00 | 0.00 | 0.00 | 80 | 1011.9 |
| 20260906143027 | 82 | 88 | 2.6 | 7.8 | 0.00 | 0.00 | 0.00 | 81 | 1011.7 |
| 20260906141526 | 81 | 73 | 5.2 | 8.7 | 0.00 | 0.00 | 0.00 | 82 | 1011.8 |
| 20260906140025 | 81 | 82 | 2.6 | 8.7 | 0.00 | 0.00 | 0.00 | 82 | 1011.8 |
| 20260906134522 | 80 | 109 | 5.2 | 7.8 | 0.00 | 0.00 | 0.00 | 82 | 1011.6 |
| 20260906133019 | 80 | 84 | 5.2 | 8.7 | 0.00 | 0.00 | 0.00 | 84 | 1011.5 |
| 20260906131518 | 79 | 97 | 5.2 | 9.6 | 0.00 | 0.00 | 0.00 | 87 | 1011.3 |
| 20260906130017 | 78 | 94 | 5.2 | 10.4 | 0.00 | 0.00 | 0.00 | 89 | 1011.2 |
| 20260906124515 | 78 | 94 | 2.6 | 7.8 | 0.00 | 0.00 | 0.00 | 91 | 1011.3 |
| 20260906123014 | 77 | 62 | 3.5 | 7.8 | 0.00 | 0.00 | 0.00 | 92 | 1011.3 |
| 20260906121515 | 77 | 94 | 3.5 | 6.1 | 0.00 | 0.00 | 0.00 | 92 | 1011.1 |
| 20260906120009 | 77 | 80 | 2.6 | 7.0 | 0.00 | 0.00 | 0.00 | 91 | 1011.0 |
| 20260906114516 | 77 | 95 | 3.5 | 7.8 | 0.00 | 0.00 | 0.00 | 91 | 1010.9 |
| 20260906113007 | 78 | 74 | 5.2 | 8.7 | 0.00 | 0.00 | 0.00 | 91 | 1010.8 |
| 20260906111502 | 78 | 90 | 4.3 | 8.7 | 0.00 | 0.00 | 0.00 | 90 | 1010.8 |
| 20260906110100 | 79 | 92 | 2.6 | 7.0 | 0.00 | 0.00 | 0.00 | 89 | 1010.7 |
| 20260906104556 | 79 | 74 | 3.5 | 5.2 | 0.00 | 0.00 | 0.00 | 87 | 1010.6 |
| 20260906103057 | 80 | 82 | 3.5 | 7.0 | 0.00 | 0.00 | 0.00 | 86 | 1010.5 |
| 20260906101552 | 80 | 72 | 1.7 | 7.0 | 0.00 | 0.00 | 0.00 | 85 | 1010.3 |
| 20260906100055 | 80 | 85 | 3.5 | 7.0 | 0.00 | 0.00 | 0.00 | 84 | 1010.2 |
| 20260906094549 | 80 | 51 | 2.6 | 4.3 | 0.00 | 0.00 | 0.00 | 83 | 1010.0 |
| 20260906093047 | 80 | 66 | 0.9 | 4.3 | 0.00 | 0.00 | 0.00 | 83 | 1009.9 |
| 20260906091546 | 81 | 105 | 1.7 | 3.5 | 0.00 | 0.00 | 0.00 | 82 | 1009.6 |
| 20260906090047 | 81 | 97 | 1.7 | 6.1 | 0.00 | 0.00 | 0.00 | 81 | 1009.5 |
| 20260906084542 | 82 | 88 | 1.7 | 5.2 | 0.00 | 0.00 | 0.00 | 80 | 1009.5 |
| 20260906083047 | 82 | 88 | 2.6 | 5.2 | 0.00 | 0.00 | 0.00 | 80 | 1009.5 |
| 20260906081540 | 82 | 82 | 1.7 | 3.5 | 0.00 | 0.00 | 0.00 | 80 | 1009.4 |
| 20260906080040 | 82 | 82 | 1.7 | 5.2 | 0.00 | 0.00 | 0.00 | 79 | 1009.3 |
| 20260906074538 | 82 | 86 | 2.6 | 6.1 | 0.00 | 0.00 | 0.00 | 79 | 1009.4 |
| 20260906073036 | 82 | 90 | 1.7 | 5.2 | 0.00 | 0.00 | 0.00 | 78 | 1009.5 |
| 20260906071534 | 83 | 91 | 2.6 | 3.5 | 0.00 | 0.00 | 0.00 | 77 | 1009.6 |
| 20260906070033 | 83 | 96 | 1.7 | 6.1 | 0.00 | 0.00 | 0.00 | 77 | 1009.7 |
| 20260906064532 | 83 | 88 | 1.7 | 5.2 | 0.00 | 0.00 | 0.00 | 77 | 1009.8 |
| 20260906063028 | 83 | 92 | 1.7 | 6.1 | 0.00 | 0.00 | 0.00 | 76 | 1009.9 |
| 20260906061530 | 85 | 92 | 3.5 | 6.1 | 0.00 | 0.00 | 0.00 | 74 | 1009.9 |
| 20260906060030 | 84 | 69 | 1.7 | 3.5 | 0.00 | 0.00 | 0.00 | 75 | 1009.9 |
| 20260906054540 | 84 | 65 | 2.6 | 7.0 | 0.00 | 0.00 | 0.00 | 75 | 1009.8 |
| 20260906053025 | 84 | 40 | 0.0 | 0.0 | 0.00 | 0.00 | 0.00 | 75 | 1009.9 |
| 20260906051521 | 84 | 40 | 0.0 | 0.0 | 0.00 | 0.00 | 0.00 | 73 | 1009.8 |
| 20260906050020 | 85 | 36 | 0.0 | 0.0 | 0.00 | 0.00 | 0.00 | 73 | 1009.8 |
| 20260906044519 | 85 | 36 | 0.0 | 0.0 | 0.00 | 0.00 | 0.00 | 72 | 1009.9 |
| 20260906043020 | 86 | 36 | 0.0 | 0.0 | 0.00 | 0.00 | 0.00 | 70 | 1009.9 |
| 20260906041518 | 85 | 36 | 0.0 | 0.0 | 0.00 | 0.00 | 0.00 | 71 | 1009.9 |
| 20260906040027 | 85 | 36 | 0.0 | 0.0 | 0.00 | 0.00 | 0.00 | 72 | 1009.7 |
| 20260906034518 | 85 | 36 | 1.7 | 3.5 | 0.00 | 0.00 | 0.00 | 72 | 1009.7 |
| 20260906033034 | 86 | 111 | 0.9 | 2.6 | 0.00 | 0.00 | 0.00 | 72 | 1009.7 |
| 20260906031517 | 87 | 111 | 0.0 | 0.9 | 0.00 | 0.00 | 0.00 | 69 | 1009.6 |
| 20260906030016 | 87 | 111 | 0.0 | 0.9 | 0.00 | 0.00 | 0.00 | 68 | 1009.3 |
| 20260906024514 | 87 | 111 | 0.0 | 1.7 | 0.00 | 0.00 | 0.00 | 68 | 1009.2 |
| 20260906023015 | 87 | 111 | 0.9 | 5.2 | 0.00 | 0.00 | 0.00 | 68 | 1009.0 |
| 20260906021515 | 88 | 105 | 2.6 | 6.1 | 0.00 | 0.00 | 0.00 | 67 | 1008.8 |
| 20260906020014 | 88 | 100 | 2.6 | 6.1 | 0.00 | 0.00 | 0.00 | 68 | 1008.7 |
| 20260906014513 | 89 | 89 | 2.6 | 7.0 | 0.00 | 0.00 | 0.00 | 65 | 1008.4 |
| 20260906013122 | 89 | 30 | 1.7 | 3.5 | 0.00 | 0.00 | 0.00 | 64 | 1008.2 |
| 20260906011515 | 90 | 50 | 0.9 | 3.5 | 0.00 | 0.00 | 0.00 | 64 | 1008.2 |
| 20260906010016 | 91 | 49 | 1.7 | 4.3 | 0.00 | 0.00 | 0.00 | 62 | 1008.0 |
| 20260906003008 | 94 | 333 | 0.0 | 1.7 | 0.00 | 0.00 | 0.00 | 57 | 1007.9 |
| 20260906001507 | 96 | 332 | 0.9 | 2.6 | 0.00 | 0.00 | 0.00 | 54 | 1007.9 |
| 20260906000007 | 96 | 331 | 0.9 | 2.6 | 0.00 | 0.00 | 0.00 | 54 | 1008.0 |
| 20260905234506 | 96 | 329 | 0.9 | 2.6 | 0.00 | 0.00 | 0.00 | 53 | 1008.1 |
| 20260905233006 | 97 | 329 | 0.9 | 2.6 | 0.00 | 0.00 | 0.00 | 51 | 1008.2 |
| 20260905231505 | 98 | 322 | 1.7 | 3.5 | 0.00 | 0.00 | 0.00 | 50 | 1008.1 |
| 20260905230004 | 99 | 19 | 1.7 | 4.3 | 0.00 | 0.00 | 0.00 | 48 | 1007.9 |
| 20260905224618 | 100 | 30 | 0.9 | 4.3 | 0.00 | 0.00 | 0.00 | 45 | 1007.9 |
| 20260905223106 | 100 | 15 | 1.7 | 4.3 | 0.00 | 0.00 | 0.00 | 46 | 1008.0 |
| 20260905221533 | 100 | 355 | 0.9 | 3.5 | 0.00 | 0.00 | 0.00 | 46 | 1008.0 |
| 20260905220031 | 100 | 39 | 1.7 | 3.5 | 0.00 | 0.00 | 0.00 | 45 | 1008.1 |
| 20260905214529 | 99 | 326 | 0.9 | 6.1 | 0.00 | 0.00 | 0.00 | 44 | 1008.1 |
| 20260905213031 | 99 | 39 | 1.7 | 7.0 | 0.00 | 0.00 | 0.00 | 45 | 1008.2 |
| 20260905211540 | 100 | 309 | 0.9 | 4.3 | 0.00 | 0.00 | 0.00 | 45 | 1008.1 |
| 20260905210038 | 99 | 335 | 1.7 | 7.0 | 0.00 | 0.00 | 0.00 | 45 | 1008.4 |
| 20260905204521 | 99 | 71 | 1.7 | 7.0 | 0.00 | 0.00 | 0.00 | 46 | 1008.4 |
| 20260905203019 | 99 | 331 | 2.6 | 7.0 | 0.00 | 0.00 | 0.00 | 45 | 1008.7 |
| 20260905201520 | 99 | 333 | 1.7 | 7.8 | 0.00 | 0.00 | 0.00 | 46 | 1008.9 |
| 20260905200022 | 99 | 14 | 3.5 | 7.8 | 0.00 | 0.00 | 0.00 | 47 | 1009.1 |
| 20260905194510 | 98 | 70 | 2.6 | 7.8 | 0.00 | 0.00 | 0.00 | 48 | 1009.2 |
| 20260905193010 | 99 | 50 | 1.7 | 7.8 | 0.00 | 0.00 | 0.00 | 46 | 1009.3 |
| 20260905191505 | 98 | 26 | 1.7 | 7.8 | 0.00 | 0.00 | 0.00 | 47 | 1009.6 |
| 20260905190003 | 99 | 324 | 1.7 | 8.7 | 0.00 | 0.00 | 0.00 | 46 | 1009.7 |
| 20260905184501 | 97 | 328 | 0.9 | 7.0 | 0.00 | 0.00 | 0.00 | 50 | 1009.9 |
| 20260905183001 | 98 | 289 | 2.6 | 7.8 | 0.00 | 0.00 | 0.00 | 48 | 1010.1 |
| 20260905181559 | 98 | 11 | 1.7 | 7.8 | 0.00 | 0.00 | 0.00 | 49 | 1010.2 |
| 20260905180103 | 97 | 24 | 1.7 | 7.0 | 0.00 | 0.00 | 0.00 | 53 | 1010.2 |
| 20260905174553 | 96 | 342 | 5.2 | 8.7 | 0.00 | 0.00 | 0.00 | 54 | 1010.4 |
| 20260905173106 | 96 | 336 | 1.7 | 7.8 | 0.00 | 0.00 | 0.00 | 57 | 1010.4 |
| 20260905171547 | 95 | 254 | 2.6 | 7.0 | 0.00 | 0.00 | 0.00 | 57 | 1010.6 |
| 20260905170057 | 94 | 309 | 3.5 | 9.6 | 0.00 | 0.00 | 0.00 | 59 | 1010.8 |
| 20260905164544 | 94 | 321 | 1.7 | 7.0 | 0.00 | 0.00 | 0.00 | 60 | 1011.0 |
| 20260905163043 | 94 | 311 | 4.3 | 7.8 | 0.00 | 0.00 | 0.00 | 60 | 1011.2 |
| 20260905161559 | 93 | 300 | 3.5 | 7.0 | 0.00 | 0.00 | 0.00 | 62 | 1011.2 |
| 20260905161514 | 92 | 281 | 3.5 | 7.0 | 0.00 | 0.00 | 0.00 | 62 | 1011.2 |
| 20260905160036 | 92 | 279 | 2.6 | 7.0 | 0.00 | 0.00 | 0.00 | 63 | 1011.1 |